Powrót do katalogu

STARLINK-37488

AktywnyŁącznośćSSO
NORAD 68859·PAYLOAD·🇺🇸 United States

Wystrzelony Apr 26, 2026 z Vandenberg Space Force Base

Loading…

Następne Przeloty (najbliższe 24 godziny)

TLE

ŚwieżeSource: CelesTrak SupGP

Epoka: Sep 14, 2026, 21:15 UTC

1 68859C 26094W   26257.88590278  .00028540  00000+0  88605-3 0  2571
2 68859  97.2838 271.1429 0001650  88.4338 168.7928 15.33420966    18

Śledź STARLINK-37488 w czasie rzeczywistym z AllMySat

Download on the App Store